Location: Zagreb
(45.8000°N, 16.0000°E)
Time: 10:26:40
(UTC+01:00)

Transit 2A Rocket - Pass Details

Date: 06 October 2023
Orbit: 593 x 903 km, 66.7° (Epoch: 01 December)

Event Time Altitude Azimuth Distance (km) Brightness Sun altitude
Rises 20:13:50 0° 333° (NNW) 2,938 8.6 -19.3°
Reaches altitude 10° 20:16:26 10° 345° (NNW) 1,990 7.5 -19.7°
Enters shadow 20:20:05 28° 40° (NE) 1,146 5.7 -20.3°
